User: anonymous   Login
Location: Mascot Post Office (historical)
(40.2645°N, 99.5462°W)
Time: 22:00:41
(UTC+00:00)
Language:

Cosmos 1842 - Orbit

View from above orbital plane
View from above orbital plane
View from above satellite
View from above satellite

Ground track
Ground track

The orbit data is extracted from the following two-line orbital elements,

1 17911U 87038A   20272.49859555 +.00000277 +00000-0 +14166-4 0  9996
2 17911 082.5185 099.7340 0012852 074.6840 285.5810 15.12307307822717
Epoch (UTC): 28 September 2020 11:57:58
Eccentricity: 0.0012852
inclination: 82.5185°
perigee height: 520 km
apogee height: 538 km
right ascension of ascending node: 99.7340°
argument of perigee: 74.6840°
revolutions per day: 15.12307307
mean anomaly at epoch: 285.5810°
orbit number at epoch: 82271

The dashed part of the orbit path shows where the satellite is in the earth's shadow,  

DLR